Theta_e
342 338 335 330 319 321 315 318 327 325 326 332 331 327 324 328 321 321 347 339 343 353 353 355 362 363 362 361 362 361 362 362 360 358 357 357 357 356 356 355 355 355 355 353 351 348 347 346 345
333 331 330 324 314 311 314 322 322 328 331 334 331 329 327 325 335 341 342 339 349 354 353 350 362 363 363 362 362 362 361 360 358 357 357 357 356 355 354 354 354 354 353 350 348 347 346 345 345
330 326 320 317 315 310 313 322 326 329 331 331 331 333 327 323 336 342 344 340 352 355 351 353 362 363 363 361 362 362 360 360 358 356 356 355 355 353 352 352 353 352 349 348 348 347 346 345 346
327 324 320 312 308 316 316 323 326 327 331 332 332 324 330 338 340 344 343 342 351 353 351 358 362 363 363 362 361 361 360 359 358 356 355 354 353 351 349 350 351 349 348 347 346 346 345 346 349
324 321 313 312 309 313 325 325 327 325 327 328 330 326 327 341 348 348 347 345 348 351 352 354 361 362 362 361 360 360 360 360 359 356 355 353 352 349 348 349 349 348 348 347 344 345 348 348 345
318 320 311 310 309 312 319 327 327 325 326 329 328 327 331 343 346 349 349 348 350 348 353 352 359 362 362 361 361 361 361 360 358 356 354 353 350 348 347 349 349 349 349 349 348 349 347 342 341
316 316 312 310 308 310 315 325 325 325 325 327 331 324 334 338 346 349 346 346 347 349 352 356 350 357 361 361 361 361 361 360 358 356 354 352 350 348 347 348 349 350 351 350 347 344 340 338 336
317 317 312 312 309 309 314 320 324 325 324 336 335 327 330 339 348 345 342 342 343 347 350 354 354 349 351 354 360 360 359 358 357 355 353 351 350 348 348 350 350 352 352 345 343 338 336 334 332
316 312 311 311 310 311 317 316 325 331 328 331 334 331 338 343 346 340 338 338 340 343 347 350 350 350 349 348 354 358 357 357 355 353 352 349 345 348 351 350 352 351 345 341 338 334 330 328 330
312 311 313 317 316 313 314 315 318 324 327 328 330 336 341 342 341 335 334 333 336 340 344 348 350 349 349 346 353 353 352 351 350 348 350 346 346 349 345 350 347 343 340 337 333 329 329 331 338
312 309 315 316 316 315 314 315 320 320 320 327 329 335 338 338 338 332 332 332 334 339 341 344 350 352 349 347 349 349 349 349 350 352 351 349 348 346 343 346 343 344 337 341 337 338 338 335 334
307 312 313 316 316 314 313 317 317 319 322 332 333 338 338 336 335 333 332 333 334 336 340 344 348 351 351 347 347 347 347 348 347 348 352 349 346 346 346 343 346 343 344 341 339 335 335 334 332
308 311 313 315 315 315 315 314 316 318 325 331 334 338 338 338 335 335 335 335 337 339 343 344 347 351 351 352 347 346 346 346 346 349 349 346 344 346 344 346 343 341 339 336 336 336 331 328 328
311 311 312 314 315 316 312 314 317 318 324 328 332 334 338 339 338 337 337 338 341 344 345 346 346 351 350 351 350 347 348 347 348 345 345 347 344 347 343 342 342 341 338 336 331 322 322 327 327
311 308 310 313 314 313 315 312 315 320 325 325 328 333 336 339 340 339 341 343 345 347 351 352 349 350 351 350 350 348 346 345 345 344 347 345 346 346 344 343 343 340 334 322 321 323 328 327 325
308 308 305 312 312 315 317 309 315 318 320 320 324 329 333 336 339 342 344 346 349 351 353 356 351 349 351 349 349 346 346 345 345 345 344 344 343 343 341 340 340 333 324 327 322 327 326 324 322
307 302 304 307 312 314 315 310 315 318 317 319 321 323 329 334 338 344 344 347 349 352 354 355 356 350 351 352 348 348 349 347 345 344 342 343 339 338 342 341 333 324 322 326 326 326 324 321 320
302 302 304 305 311 311 310 310 314 317 317 318 319 320 324 330 335 342 346 345 347 350 354 356 356 357 355 351 349 346 346 345 345 342 341 341 339 337 340 332 324 321 326 328 327 325 323 321 318
305 304 303 306 310 309 308 310 313 316 317 320 320 319 323 329 336 341 345 347 347 347 347 352 354 358 354 348 344 342 341 342 341 341 340 340 338 334 332 329 325 329 328 327 326 323 321 317 317
305 303 304 307 309 308 308 309 313 315 318 322 322 322 324 329 335 342 346 348 348 349 349 350 351 355 353 348 347 345 344 342 342 340 339 338 333 331 329 325 332 332 326 326 325 323 317 314 316
305 304 303 303 307 309 309 307 310 314 322 326 326 325 328 329 334 339 342 346 348 348 349 349 351 352 352 352 348 346 344 342 338 338 335 333 329 327 331 332 329 328 325 321 322 319 317 312 314
302 306 305 304 304 300 309 300 309 312 314 320 324 325 326 329 333 338 341 343 346 347 349 350 350 351 350 351 347 346 340 337 339 338 335 330 329 330 329 328 326 324 321 319 317 315 317 316 312
304 307 306 306 305 305 305 302 306 312 310 313 323 327 328 330 333 337 339 341 343 344 346 348 349 349 348 348 348 344 344 342 338 332 331 330 328 327 323 323 320 319 316 318 318 318 318 315 313
308 306 307 307 305 299 303 303 304 308 310 314 322 327 330 331 334 337 340 337 341 344 345 347 347 347 347 347 347 347 342 337 333 331 328 326 324 323 322 318 319 318 318 318 317 318 317 315 313
308 305 298 297 297 296 305 302 305 311 313 314 316 321 327 333 334 336 333 335 340 342 343 344 345 342 344 344 343 342 340 337 333 330 325 321 322 321 321 318 319 316 319 317 317 316 314 313 312
306 305 299 292 295 298 305 299 305 313 315 320 323 325 328 332 335 336 335 337 339 341 342 341 341 340 340 338 336 335 334 329 327 323 322 322 320 320 320 319 318 317 316 316 316 313 313 314 313
304 301 307 302 303 299 302 305 310 313 313 316 320 324 327 331 334 335 336 337 339 340 339 340 339 336 335 333 331 330 327 325 323 323 322 320 321 318 317 317 317 317 316 316 317 314 313 314 314
306 310 301 302 294 294 299 301 303 308 310 314 316 320 327 332 334 336 336 336 339 338 338 338 336 333 331 330 328 325 324 324 322 321 320 320 321 318 316 317 317 316 316 317 317 315 316 315 314
304 303 304 305 303 297 296 300 311 311 314 314 316 318 325 332 334 335 336 335 338 337 335 334 332 330 328 326 324 323 323 322 321 321 320 319 319 318 316 316 315 316 315 316 317 316 315 314 314
308 306 306 300 299 302 301 300 313 314 314 316 317 319 327 333 335 335 334 335 336 334 333 331 330 327 325 324 323 323 323 322 322 321 320 319 318 318 317 317 316 315 315 316 315 314 314 313 312
Wind_Speed
10 9 4 6 9 8 6 7 4 4 4 1 1 2 4 6 4 5 10 13 17 19 19 19 16 15 14 14 14 14 12 12 12 12 12 11 9 9 8 7 6 6 7 6 6 7 7 8 7
4 4 6 5 9 6 8 5 2 1 4 1 4 3 3 2 1 8 14 13 19 19 18 18 16 15 15 14 13 13 13 12 12 11 10 10 9 8 7 5 5 6 6 5 6 6 7 7 8
7 7 7 6 3 6 5 5 1 5 2 5 3 3 2 2 2 10 15 18 19 18 18 16 16 15 15 15 14 13 12 11 11 10 9 8 7 6 5 5 5 5 4 4 5 6 6 7 7
5 7 7 7 6 7 1 1 2 2 5 3 6 3 3 5 5 7 17 19 18 18 17 19 15 15 15 15 13 12 11 11 11 10 9 8 7 6 5 5 4 3 3 4 5 6 6 6 6
7 5 8 3 5 2 2 3 4 2 4 4 3 1 2 7 9 13 14 16 17 17 16 18 15 14 15 15 14 12 12 11 10 9 7 7 6 5 4 3 3 3 3 3 4 5 6 7 7
8 4 10 3 4 4 1 3 4 4 1 3 4 3 6 8 9 11 13 15 14 14 15 17 15 14 13 13 13 12 11 9 8 8 6 5 5 4 3 2 1 2 2 3 4 6 7 6 5
12 8 8 5 2 2 6 1 8 4 4 3 3 4 5 9 10 11 12 13 12 12 14 15 17 15 12 11 11 11 9 9 9 7 6 5 4 3 3 2 1 1 2 6 7 7 6 5 4
9 8 9 4 2 3 4 3 3 4 2 4 4 2 6 13 13 12 13 13 14 14 14 15 14 15 14 14 12 10 10 9 8 7 6 5 5 5 6 6 6 3 6 7 7 6 5 4 3
5 10 11 5 5 4 3 5 6 3 5 7 6 2 4 17 15 14 13 14 13 10 11 11 13 14 14 13 13 10 9 7 6 8 7 8 9 9 9 7 5 7 7 6 6 5 3 2 6
10 11 13 3 6 6 5 6 6 5 7 9 7 3 11 17 16 15 14 14 15 15 14 12 11 10 11 7 8 10 10 9 8 8 7 9 5 3 5 7 6 7 7 6 5 3 5 10 6
11 14 9 6 7 7 11 10 0 6 9 7 9 11 16 16 15 14 15 15 15 15 12 13 12 10 10 8 7 6 6 6 6 7 6 6 3 5 7 5 7 5 7 6 6 6 5 8 7
11 13 10 10 3 9 11 9 11 9 5 3 5 13 16 17 15 14 14 13 14 13 12 11 11 9 9 6 6 6 5 5 5 6 6 4 5 3 3 3 1 3 1 3 3 5 5 8 8
14 11 8 11 12 11 12 13 14 15 5 6 7 12 16 15 15 14 12 12 11 11 12 12 12 12 10 8 5 5 5 5 5 4 6 5 5 3 4 1 2 4 3 4 5 7 7 9 8
0 11 12 11 12 9 10 11 4 4 6 15 10 13 15 17 17 15 13 11 11 10 11 11 12 11 11 10 9 6 6 5 5 5 5 6 5 3 3 3 1 2 4 4 6 4 6 7 8
8 11 14 15 13 9 6 13 14 10 3 10 15 13 15 15 18 18 17 14 12 10 10 11 12 12 11 11 9 8 6 7 6 5 5 6 6 5 2 1 2 3 4 3 2 6 7 7 8
12 9 13 15 8 3 6 15 15 3 7 10 12 15 15 15 15 17 16 15 14 12 13 12 11 13 13 11 9 7 7 6 6 5 6 7 6 5 4 3 1 2 1 2 5 6 7 8 8
10 12 15 9 5 4 9 13 8 4 5 11 12 13 16 16 15 14 15 14 14 14 12 13 13 13 13 12 9 8 6 6 5 5 5 7 6 6 2 2 3 2 2 5 5 6 7 8 8
6 9 7 11 10 9 13 14 15 12 8 14 15 17 15 15 17 15 15 13 13 12 12 11 11 13 11 8 8 7 6 5 5 5 5 6 5 5 2 3 3 3 5 5 5 7 8 9 8
5 6 9 7 4 10 14 16 15 17 9 15 14 15 15 13 11 13 11 11 11 10 10 11 11 11 10 9 9 8 8 6 5 5 6 7 5 5 4 3 3 6 5 5 6 7 9 9 7
8 9 11 9 7 6 14 14 16 13 11 10 11 11 13 12 10 9 10 10 10 10 10 10 11 11 10 8 7 5 5 6 6 6 6 5 5 4 3 5 3 2 6 5 6 7 9 9 6
12 11 9 11 9 14 14 17 17 9 8 8 9 9 8 10 13 12 12 11 9 9 9 9 10 11 11 9 7 6 7 7 6 7 6 5 4 5 4 2 4 4 5 5 5 7 8 9 8
13 5 9 8 8 10 6 12 9 9 9 6 4 8 9 9 10 11 11 10 9 8 7 9 10 11 10 12 10 11 8 8 6 6 4 4 5 3 2 1 3 4 6 6 6 5 7 7 9
10 3 8 8 10 10 14 10 14 6 11 6 2 3 4 5 7 8 10 8 7 8 9 9 11 11 12 10 9 9 7 6 6 5 7 5 4 2 1 2 3 4 6 5 6 7 7 8 7
2 8 11 10 12 12 15 11 12 10 5 7 4 0 1 4 6 8 7 8 10 11 11 11 11 10 10 9 9 6 8 8 7 6 6 4 3 2 1 3 4 4 5 5 6 5 7 6 7
9 8 8 10 11 12 5 7 14 10 6 6 9 5 3 5 8 11 11 11 11 13 12 11 11 10 9 9 8 8 9 8 8 7 3 2 2 2 2 3 3 4 3 4 5 5 6 4 6
13 13 10 7 10 9 9 7 6 5 5 7 8 8 8 7 10 11 13 13 14 13 12 11 11 11 10 10 10 9 10 6 6 4 4 2 1 2 1 3 3 4 5 5 5 7 5 4 7
17 11 13 15 13 10 12 8 7 16 11 10 8 6 7 7 10 12 13 13 13 12 11 11 12 12 11 11 10 9 7 6 6 6 4 3 1 2 5 4 3 4 5 5 6 7 6 7 9
13 0 8 10 13 16 10 10 8 5 8 7 7 6 7 7 10 12 13 13 12 12 11 11 11 12 12 11 10 9 8 8 7 5 4 3 2 4 4 3 3 5 6 6 6 8 7 9 9
9 12 9 8 8 10 12 8 1 7 8 10 13 9 6 9 11 13 14 14 13 12 12 11 12 13 12 10 10 9 8 7 6 5 5 5 4 4 4 5 5 7 8 8 7 9 11 11 12
12 16 12 11 12 10 11 13 11 9 14 12 14 12 6 6 10 13 14 16 14 13 12 12 11 12 11 10 10 8 7 7 6 5 5 4 4 4 5 6 7 9 10 9 9 10 11 12 12
Wind_Direction
169 196 238 231 241 245 81 94 359 165 171 130 244 210 331 359 330 12 135 151 150 150 151 164 163 163 157 149 145 144 146 142 138 138 140 135 134 134 131 124 121 106 93 87 82 76 67 59 49
199 197 226 273 267 240 91 103 216 204 75 245 181 203 221 71 56 113 142 158 159 148 151 162 164 164 159 153 152 152 154 145 140 139 142 142 141 138 128 124 110 99 93 85 75 66 58 50 41
233 244 269 291 293 1 57 113 116 123 160 236 200 289 16 52 80 142 118 156 158 155 158 149 165 162 160 159 160 159 154 146 146 146 145 141 146 133 118 105 94 91 88 83 75 67 61 54 46
242 200 217 276 13 71 85 329 252 219 194 237 288 200 152 20 131 124 139 153 154 161 160 138 160 160 163 164 163 158 156 154 153 157 157 157 154 133 130 118 110 88 69 64 64 64 64 60 55
238 248 267 242 62 40 244 244 219 266 344 301 220 124 59 89 80 126 147 159 164 162 162 153 159 166 169 166 166 163 166 165 162 163 162 164 150 146 138 125 106 88 71 62 70 81 82 84 85
261 267 249 233 64 68 243 188 231 258 341 30 227 266 108 95 141 143 154 164 163 162 159 149 161 170 170 169 171 172 171 163 164 167 168 167 161 153 157 129 99 80 75 76 92 98 103 97 92
266 273 289 298 70 209 33 328 245 247 257 166 96 199 78 151 134 154 157 147 153 167 169 158 175 177 174 174 175 175 169 168 172 173 171 172 180 188 181 168 164 157 124 114 107 108 112 112 89
274 273 260 208 191 84 41 274 288 241 256 85 232 218 154 143 150 157 152 158 166 171 177 176 179 178 187 179 185 181 177 178 179 185 187 189 197 199 201 206 180 171 132 126 127 121 112 98 74
262 254 251 220 253 90 126 302 95 30 205 224 192 314 74 133 153 166 168 169 164 172 181 184 180 179 194 186 171 186 188 187 190 196 198 205 229 185 177 92 106 141 133 128 121 109 102 219 200
236 241 249 351 297 277 317 308 337 223 195 215 206 165 138 153 167 177 179 177 176 176 181 185 193 190 193 186 169 202 188 206 205 206 200 225 218 239 323 79 127 127 130 128 125 154 226 235 306
222 254 264 241 252 296 300 294 148 268 242 203 208 164 159 163 178 185 187 181 181 179 179 186 185 191 198 189 183 191 198 201 198 219 225 233 238 198 220 164 183 179 191 219 209 221 284 332 320
250 239 264 270 283 269 275 315 282 265 315 96 220 158 169 173 183 193 194 187 184 174 182 182 177 189 210 188 198 194 203 198 213 203 200 224 224 201 264 261 272 244 310 318 290 313 327 302 314
240 250 254 255 267 263 287 274 283 285 177 179 161 168 178 185 185 190 187 180 177 179 181 191 186 188 186 207 197 217 217 199 214 204 192 224 228 214 226 128 289 328 314 322 328 315 338 313 296
58 259 251 258 264 272 270 277 301 241 236 197 188 187 189 194 197 190 197 199 198 197 190 196 193 182 193 203 209 201 211 200 214 208 203 203 223 177 179 180 222 305 346 329 344 345 304 302 311
238 254 228 235 242 258 271 255 241 246 150 205 203 206 201 203 200 201 196 202 206 204 209 192 196 187 202 200 199 212 203 210 211 206 180 196 196 178 125 106 290 289 22 9 298 263 283 295 306
235 236 242 215 198 162 237 254 211 184 234 238 224 209 209 211 217 200 205 200 203 215 195 199 203 186 196 199 195 209 203 209 205 189 171 180 161 160 186 176 226 92 172 281 248 301 308 311 311
204 249 217 192 205 176 231 267 292 157 243 266 264 233 217 211 211 202 201 207 204 205 213 202 206 206 195 199 196 204 184 214 193 183 171 174 156 151 210 206 143 169 235 252 298 307 311 310 309
254 217 234 265 157 229 253 257 272 267 268 264 265 259 231 215 207 201 201 205 202 207 208 212 206 216 196 188 197 190 177 186 177 173 152 150 145 156 188 113 146 230 235 282 325 311 317 305 310
289 274 271 278 266 270 261 265 272 268 259 260 266 246 238 213 204 196 186 200 198 206 202 206 204 197 193 190 190 186 185 172 162 146 150 157 158 135 167 167 175 240 273 327 299 308 307 308 319
244 260 260 277 291 251 266 272 269 255 270 284 283 238 221 208 183 174 196 200 201 196 200 198 203 190 196 192 200 196 168 168 152 147 153 140 145 154 136 198 242 288 301 267 297 313 306 306 327
238 262 280 287 298 269 264 260 248 218 254 256 253 249 224 218 188 193 200 200 192 192 192 190 188 178 188 179 159 158 138 141 160 161 167 137 144 167 209 238 299 287 276 304 325 309 307 309 307
263 260 261 271 262 259 207 274 182 210 253 204 223 210 217 214 219 190 203 198 199 181 169 166 164 167 168 173 175 174 173 176 169 161 139 148 165 151 154 269 308 307 320 320 300 299 314 292 309
264 296 257 276 262 276 247 246 273 199 257 265 158 176 186 205 208 189 198 182 179 174 158 150 153 159 155 167 169 173 177 124 151 150 155 111 125 118 142 302 312 315 295 337 307 302 305 303 305
255 216 235 251 251 238 242 246 253 246 3 322 149 83 189 210 192 183 162 147 178 166 156 152 152 146 149 152 152 171 139 152 152 152 160 158 158 168 16 329 327 321 320 290 298 315 276 309 307
222 230 243 216 216 245 186 232 251 309 282 287 297 268 240 213 199 184 158 189 177 164 158 151 147 145 144 140 135 137 137 138 136 164 154 162 178 214 133 302 307 307 310 294 306 300 288 290 318
207 239 264 271 258 251 147 238 221 239 286 286 285 278 281 208 204 195 181 186 182 165 158 152 151 144 141 131 128 131 139 137 131 130 119 157 236 203 112 258 269 275 269 272 278 270 299 314 294
230 237 258 273 265 276 279 247 214 245 258 259 253 271 260 221 206 190 183 186 180 165 156 164 153 142 139 134 137 134 131 141 114 124 154 166 219 165 206 236 287 284 275 271 289 275 292 293 287
256 117 210 219 263 254 251 245 269 251 285 330 302 274 250 222 203 185 173 192 175 163 163 159 153 148 143 144 145 148 144 139 136 145 186 200 174 229 218 233 265 284 286 288 286 286 285 293 289
180 226 232 298 297 280 270 265 109 280 310 309 312 331 304 195 202 185 170 195 174 167 165 158 155 151 148 153 149 149 143 142 152 176 190 200 206 227 252 272 284 292 295 288 284 283 281 287 297
272 281 236 240 234 237 277 277 304 281 292 313 305 320 322 188 198 184 172 188 176 175 165 164 158 156 156 155 155 148 147 157 178 197 196 205 236 266 279 287 295 292 289 288 282 288 302 300 302